Weather History for KITH - October, 2011

Change the Weather History Date:

Thursday, October 20, 2011

  Actual Average Record
Temperature  
Mean Temperature 54 °F -  
Max Temperature 62 °F 53 °F 82 °F (1963)
Min Temperature 45 °F 35 °F 18 °F (1972)
Degree Days  
Heating Degree Days 12    
Growing Degree Days 4 (Base 50)    
Moisture  
Dew Point 49 °F    
Average Humidity 83    
Maximum Humidity 100    
Minimum Humidity 57    
Precipitation  
Precipitation 0.00 in - - ()
Sea Level Pressure  
Sea Level Pressure 29.34 in    
Wind  
Wind Speed 10 mph (South)    
Max Wind Speed 20 mph    
Max Gust Speed 29 mph    
Visibility 10 miles    
Events Rain    
Averages and records for this station are not official NWS values.
T = Trace of Precipitation, MM = Missing Value Source: NWS Daily Summary

Daily Weather History Graph

Daily Weather History Graph

Search for Another Location

Airport or City:

Trip Planner

Search our weather history database for the weather conditions in past years. The results will help you decide how hot, cold, wet, or windy it might be!

Date:

Astronomy

Oct. 20, 2011 Rise Set
Actual Time 7:24 AM EDT 6:16 PM EDT
Civil Twilight 6:55 AM EDT 6:44 PM EDT
Nautical Twilight 6:23 AM EDT 7:17 PM EDT
Astronomical Twilight 5:50 AM EDT 7:50 PM EDT
Moon No Moon Rise 2:32 PM EDT (10/20)
Length of Visible Light 11h 49m
Length of Day
10h 51m
Last Quarter, 44% of the Moon is Illuminated
Oct 20
Last Quarter
Oct 26
New
Nov 2
First Quarter
Nov 10
Full
Nov 18
Last Quarter

Hourly Weather History & Observations

Time (EDT) Temp. Windchill Dew Point Humidity Pressure Visibility Wind Dir Wind Speed Gust Speed Precip Events Conditions
12:56 AM 54.9 °F - 54.0 °F 97% 29.31 in 7.0 mi East 8.1 mph - 0.00 in Rain Light Rain
1:56 AM 54.9 °F - 54.0 °F 97% 29.29 in 8.0 mi East 4.6 mph - 0.00 in Rain Light Rain
2:24 AM 55.4 °F - 53.6 °F 94% 29.27 in 10.0 mi East 9.2 mph - 0.00 in Rain Light Rain
2:35 AM 55.4 °F - 53.6 °F 94% 29.26 in 10.0 mi East 10.4 mph - 0.00 in   Overcast
2:56 AM 55.9 °F - 54.9 °F 96% 29.25 in 10.0 mi ESE 6.9 mph - 0.00 in Rain Light Rain
3:56 AM 59.0 °F - 56.8 °F 93% 29.20 in 10.0 mi East 10.4 mph 20.7 mph 0.00 in   Overcast
4:40 AM 60.8 °F - 57.2 °F 88% 29.18 in 10.0 mi SE 13.8 mph 28.8 mph N/A   Overcast
4:56 AM 61.9 °F - 57.9 °F 87% 29.17 in 10.0 mi ESE 16.1 mph 26.5 mph N/A   Overcast
5:29 AM 62.6 °F - 57.2 °F 82% 29.18 in 10.0 mi SE 19.6 mph 24.2 mph N/A   Overcast
5:56 AM 59.9 °F - 59.0 °F 97% 29.22 in 3.0 mi SW 10.4 mph 20.7 mph 0.00 in Rain Heavy Rain
6:12 AM 59.0 °F - 57.2 °F 94% 29.23 in 10.0 mi SW 12.7 mph 21.9 mph 0.00 in Rain Light Rain
6:26 AM 57.2 °F - 55.4 °F 94% 29.24 in 10.0 mi SSW 8.1 mph - 0.00 in   Overcast
6:56 AM 55.9 °F - 54.9 °F 96% 29.25 in 10.0 mi SW 6.9 mph - 0.00 in   Mostly Cloudy
6:59 AM 55.4 °F - 55.4 °F 100% 29.25 in 10.0 mi SW 4.6 mph - N/A   Mostly Cloudy
7:07 AM 55.4 °F - 53.6 °F 94% 29.26 in 10.0 mi SW 5.8 mph - N/A   Mostly Cloudy
7:56 AM 54.0 °F - 50.9 °F 89% 29.28 in 10.0 mi SSW 4.6 mph - N/A   Mostly Cloudy
8:14 AM 55.4 °F - 51.8 °F 88% 29.29 in 10.0 mi SW 9.2 mph - N/A   Mostly Cloudy
8:56 AM 54.0 °F - 48.9 °F 83% 29.32 in 10.0 mi South 9.2 mph - N/A   Mostly Cloudy
9:56 AM 55.9 °F - 50.0 °F 80% 29.32 in 10.0 mi South 8.1 mph - N/A   Mostly Cloudy
10:56 AM 54.0 °F - 47.8 °F 80% 29.35 in 10.0 mi SSW 11.5 mph - 0.00 in   Mostly Cloudy
12:56 PM 52.9 °F - 41.0 °F 64% 29.37 in 10.0 mi SW 12.7 mph - N/A   Mostly Cloudy
1:56 PM 52.0 °F - 39.9 °F 63% 29.38 in 10.0 mi SSW 12.7 mph 17.3 mph N/A   Overcast
2:56 PM 54.0 °F - 38.8 °F 57% 29.39 in 10.0 mi South 16.1 mph - N/A   Mostly Cloudy
3:56 PM 47.8 °F - 41.0 °F 77% 29.42 in 10.0 mi WSW 8.1 mph - 0.00 in Rain Light Rain
4:56 PM 48.9 °F - 39.9 °F 71% 29.45 in 10.0 mi SSW 15.0 mph 24.2 mph 0.00 in   Mostly Cloudy
5:56 PM 45.9 °F 41.7 °F 41.0 °F 83% 29.49 in 10.0 mi South 8.1 mph - 0.00 in   Mostly Cloudy
6:56 PM 46.9 °F - 37.9 °F 71% 29.52 in 10.0 mi SSW 15.0 mph 24.2 mph 0.00 in   Overcast
7:56 PM 46.9 °F - 37.9 °F 71% 29.54 in 10.0 mi SSW 10.4 mph - N/A   Overcast
9:56 PM 46.9 °F - 36.9 °F 68% 29.57 in 10.0 mi SSW 10.4 mph - N/A   Overcast
10:56 PM 46.9 °F - 36.0 °F 66% 29.58 in 10.0 mi SSW 15.0 mph - N/A   Overcast
11:56 PM 45.9 °F 39.1 °F 36.9 °F 71% 29.60 in 10.0 mi SSW 16.1 mph 19.6 mph N/A   Overcast